"Pseudo-MPEC" for P21Cjqi

Created 2022 Dec 12 18:22:15 UT using Find_Orb

Click here for an explanation of pseudo-MPECs

 
 Astrometry: 
     P21Cjqi* C2022 12 01K?D9#?7#-G^c7Se#hSwpZy''?O7n3PtSNg0G$gU%Wi=eTtSaq#vpF52
     P21Cjqi  C2022 12 01^#j3n8!x2.MrtX_)^ea'\5V3Q(6MRt*Bay[Astrometrywm$$GvyF52
     P21Cjqi  C2022 12 01Z\(GCE*#4:6eBL8uC=vRXM]R!3+[o3S=1x!4g;%R8Qk3,h*H]Zk]F52
     P21Cjqi  C2022 12 01qC8+NtTMq'LomBtyZjm22Q4PhHB%t?YH83d?_EE1:lSil3o6Z[I2F52
     P21Cjqi |C2022 12 02ISqOEox$=68[/wUbt!cG)X^dmaP:*hjd39bl0R*kb[KqCEL_/tCA807
     P21Cjqi |C2022 12 02X-5?7Q3usredacted;W`-pyU]KqvB;BnU+hxLF_;?vGSq@d1M[h;807
     P21Cjqi |C2022 12 02CcAn[=6w9*RDM*Ksifm?3j.dV[yDboA%65a-%^GcjE6clickNJdq807
     P21Cjqi |C2022 12 11kW6XWZfA6HA4djUiDP3#h4g2ZW`^AWOxG./here(tQrvL-:b^va4807
     P21Cjqi |C2022 12 11/dWDQiXc**;l)cTlk(C=YIJs?gW;NF%lforW#x[a*wkFCN/QATZK807
     P21Cjqi |C2022 12 119Bvfa=xWED\7U_iUtP`Kexplanationv`o$IyWZ(M:X:Uu82t6H2807

Station data:
(807) Cerro Tololo Observatory, La Serena  (S30.169133 W70.805900)  Chile.
   Observer R. Holmes. 0.61-m f/6.5 astrograph + CCD.
(F52) Pan-STARRS 2, Haleakala  (N20.707382 W156.255910)  US/Hawaii.
   Observers J. Bulger, T. Dukes, T. Lowe, A. Schultz, M. Willman. Measurers
   K. Chambers, S. Chastel, T. de Boer, L. Denneau, J. Fairlamb, H.
   Flewelling, M. Huber, C.-C. Lin, E. Magnier, Y. Ramanjooloo, R. Wainscoat,
   R. Weryk. 1.8-m Ritchey-Chrétien + CCD.

Orbital elements:  P21Cjqi
   Perihelion 2023 Jan 25.35269 +/- 1.94 TT =  8:27:52 (JD 2459969.85269)
Epoch 2022 Dec 11.0 TT = JDT 2459924.5   Earth MOID: 0.8217      AutoNEOCP
M 349.25311246 +/- 0.38             (J2000 ecliptic)
n   0.23696253 +/- 0.00232          Peri.  282.00626 +/- 1.7
a   2.58632393 +/- 0.0169           Node   172.15917 +/- 0.54
e   0.3785714 +/- 0.00636           Incl.   28.16971 +/- 0.14
P   4.16                   H 18.90  G  0.15   U  8.7
q 1.60721549 +/- 0.00848    Q 3.56543237 +/- 0.0387
From 10 observations 2022 Dec. 1-11; mean residual 0".14
Residuals in arcseconds: 
221201 F52  .02+  .29+    221202 807  .03+  .05-    221211 807  .05+  .08+    
221201 F52  .09-  .27-    221202 807  .00   .04+    221211 807  .04+  .29+    
221201 F52  .05+  .04-    221202 807  .03-  .02+    
221201 F52  .03+  .01+    221211 807  .09-  .37-    

Ephemerides (geocentric):
Date (UTC) HH   RA             Dec           delta  r     elong  mag " sig PA
---- --------  ------------   ------------  ------ ------ -----  --- --------
2022 12 12 18  04 00 21.370   -35 37 39.89  .93248 1.6475 118.5 21.2 1.20 174
2022 12 12 19  04 00 20.403   -35 37 33.33  .93255 1.6474 118.5 21.2 1.24 174
2022 12 12 20  04 00 19.437   -35 37 26.70  .93262 1.6473 118.4 21.2 1.28 174
2022 12 12 21  04 00 18.475   -35 37 20.00  .93269 1.6473 118.4 21.2 1.32 174
2022 12 12 22  04 00 17.514   -35 37 13.22  .93276 1.6472 118.4 21.2 1.36 175
2022 12 12 23  04 00 16.557   -35 37 06.36  .93284 1.6471 118.4 21.2 1.40 175
2022 12 13 00  04 00 15.601   -35 36 59.43  .93291 1.6470 118.4 21.2 1.43 175
2022 12 13 01  04 00 14.649   -35 36 52.43  .93298 1.6470 118.4 21.2 1.47 175
2022 12 13 02  04 00 13.698   -35 36 45.35  .93305 1.6469 118.3 21.2 1.51 175
2022 12 13 03  04 00 12.751   -35 36 38.19  .93312 1.6468 118.3 21.2 1.55 175
2022 12 13 04  04 00 11.806   -35 36 30.96  .93319 1.6467 118.3 21.2 1.59 175
2022 12 13 05  04 00 10.863   -35 36 23.66  .93326 1.6467 118.3 21.2 1.64 175
2022 12 13 06  04 00 09.923   -35 36 16.27  .93333 1.6466 118.3 21.2 1.68 175
2022 12 13 07  04 00 08.985   -35 36 08.82  .93341 1.6465 118.3 21.2 1.72 175
2022 12 13 08  04 00 08.050   -35 36 01.29  .93348 1.6464 118.3 21.2 1.76 175
2022 12 13 09  04 00 07.117   -35 35 53.69  .93355 1.6464 118.2 21.2 1.80 175
2022 12 13 10  04 00 06.187   -35 35 46.01  .93362 1.6463 118.2 21.2 1.84 175
2022 12 13 11  04 00 05.260   -35 35 38.25  .93369 1.6462 118.2 21.2 1.89 175
2022 12 13 12  04 00 04.335   -35 35 30.42  .93377 1.6461 118.2 21.2 1.93 175
2022 12 13 13  04 00 03.412   -35 35 22.52  .93384 1.6461 118.2 21.2 1.97 175
2022 12 13 14  04 00 02.492   -35 35 14.54  .93391 1.6460 118.2 21.2 2.02 175
2022 12 13 15  04 00 01.575   -35 35 06.49  .93398 1.6459 118.1 21.2 2.06 175
2022 12 13 16  04 00 00.661   -35 34 58.36  .93405 1.6458 118.1 21.2 2.10 175
2022 12 13 17  03 59 59.748   -35 34 50.16  .93413 1.6458 118.1 21.2 2.15 175
2022 12 13 18  03 59 58.839   -35 34 41.88  .93420 1.6457 118.1 21.2 2.19 175
2022 12 13 19  03 59 57.932   -35 34 33.53  .93427 1.6456 118.1 21.2 2.24 175
2022 12 13 20  03 59 57.028   -35 34 25.11  .93435 1.6456 118.1 21.2 2.28 175
2022 12 13 21  03 59 56.126   -35 34 16.61  .93442 1.6455 118.1 21.2 2.33 175
2022 12 13 22  03 59 55.227   -35 34 08.04  .93449 1.6454 118.0 21.2 2.37 175
2022 12 13 23  03 59 54.330   -35 33 59.39  .93456 1.6453 118.0 21.2 2.42 175
2022 12 14 00  03 59 53.436   -35 33 50.67  .93464 1.6453 118.0 21.2 2.47 175
2022 12 14 01  03 59 52.545   -35 33 41.87  .93471 1.6452 118.0 21.2 2.51 176
2022 12 14 02  03 59 51.657   -35 33 33.00  .93478 1.6451 118.0 21.2 2.56 176
2022 12 14 03  03 59 50.771   -35 33 24.05  .93486 1.6450 118.0 21.2 2.61 176
2022 12 14 04  03 59 49.887   -35 33 15.04  .93493 1.6450 118.0 21.2 2.66 176
2022 12 14 05  03 59 49.007   -35 33 05.94  .93500 1.6449 117.9 21.2 2.70 176
2022 12 14 06  03 59 48.128   -35 32 56.78  .93508 1.6448 117.9 21.2 2.75 176
2022 12 14 07  03 59 47.253   -35 32 47.53  .93515 1.6448 117.9 21.2 2.80 176
2022 12 14 08  03 59 46.380   -35 32 38.22  .93523 1.6447 117.9 21.2 2.85 176
2022 12 14 09  03 59 45.510   -35 32 28.83  .93530 1.6446 117.9 21.2 2.90 176
2022 12 14 10  03 59 44.643   -35 32 19.37  .93537 1.6445 117.9 21.2 2.95 176
2022 12 14 11  03 59 43.778   -35 32 09.83  .93545 1.6445 117.8 21.2 3.00 176
2022 12 14 12  03 59 42.916   -35 32 00.22  .93552 1.6444 117.8 21.2 3.05 176
2022 12 14 13  03 59 42.057   -35 31 50.54  .93560 1.6443 117.8 21.2 3.10 176
2022 12 14 14  03 59 41.200   -35 31 40.78  .93567 1.6442 117.8 21.2 3.15 176
2022 12 14 15  03 59 40.346   -35 31 30.95  .93575 1.6442 117.8 21.2 3.20 176
2022 12 14 16  03 59 39.495   -35 31 21.04  .93582 1.6441 117.8 21.2 3.25 176
2022 12 14 17  03 59 38.646   -35 31 11.06  .93590 1.6440 117.8 21.2 3.30 176